Left ArrowRight Arrow

Hourly Observations for June 17, 2024

Temp ( °F °C ) Dew Point ( °F °C ) Humidity (%) Winds ( mph kmh ) Pressure ( in mb ) Visibility ( mi km ) Precip ( " mm )
12:52 am 00:52 Partly Cloudy 81 27.2 73 22.8 77 77 S 20 31 29.68 1005 10 16 0.00 0.00
1:52 am 01:52 Partly Cloudy 80 26.7 72 22.2 76 76 S 20 31 29.65 1004 10 16 0.00 0.00
2:52 am 02:52 Partly Cloudy 79 26.1 70 21.1 74 74 SSE 16 26 29.67 1005 10 16 0.00 0.00
3:52 am 03:52 Mostly Cloudy 80 26.7 69 20.6 69 69 S 14 22 29.67 1005 10 16 0.00 0.00
4:52 am 04:52 Mostly Cloudy 79 26.1 69 20.6 72 72 S 10 17 29.69 1005 10 16 0.00 0.00
5:52 am 05:52 Mostly Cloudy 77 25 69 20.6 77 77 S 10 17 29.69 1006 10 16 0.00 0.00
6:46 am 06:46 Mostly Cloudy 72 22 64 18 78 78 NNW 29 46 29.79 1009 10 16 0.00 0.00
6:52 am 06:52 Mostly Cloudy 70 21.1 63 17.2 78 78 N 25 41 29.79 1009 10 16 0.00 0.00
7:31 am 07:31 Cloudy with Light Rain 68 20 63 17.2 84 84 N 14 22 29.82 1010 10 16 0.01 0.13
7:38 am 07:38 Cloudy with Thunderstorms 68 20 64 17.8 87 87 N 15 24 29.82 1010 10 16 0.01 0.13
7:52 am 07:52 Cloudy with Thunderstorms 67 19.4 64 17.8 90 90 N 14 22 29.82 1010 3 5 0.08 2.03
8:28 am 08:28 Cloudy with Light Rain 67 19.4 64 17.8 90 90 ENE 17 28 29.81 1009 10 16 0.28 7.11
8:52 am 08:52 Cloudy 68 20 64 17.8 87 87 ENE 12 19 29.80 1009 10 16 0.28 7.11
9:52 am 09:52 Cloudy 71 21.7 64 17.8 79 79 ENE 8 13 29.80 1009 10 16 0.00 0.00
10:52 am 10:52 Mostly Cloudy 75 23.9 66 18.9 74 74 ENE 13 20 29.79 1009 10 16 0.00 0.00
11:52 am 11:52 Mostly Cloudy 79 26.1 68 20 69 69 ESE 18 30 29.72 1007 10 16 0.00 0.00
12:52 pm 12:52 Mostly Cloudy 84 28.9 71 21.7 65 65 SSE 25 41 29.69 1005 10 16 0.00 0.00
1:52 pm 13:52 Mostly Cloudy 86 30 72 22.2 63 63 S 24 39 29.65 1004 10 16 0.00 0.00
2:52 pm 14:52 Mostly Cloudy 88 31.1 72 22.2 59 59 S 23 37 29.66 1004 10 16 0.00 0.00
3:52 pm 15:52 Mostly Cloudy 87 30.6 73 22.8 63 63 SSE 24 39 29.64 1004 10 16 0.00 0.00
4:52 pm 16:52 Mostly Cloudy 87 30.6 73 22.8 63 63 SSE 25 41 29.62 1003 10 16 0.00 0.00
5:52 pm 17:52 Mostly Cloudy 88 31.1 73 22.8 61 61 S 24 39 29.60 1002 10 16 0.00 0.00
6:52 pm 18:52 Mostly Cloudy 88 31.1 73 22.8 61 61 SSE 24 39 29.59 1002 10 16 0.00 0.00
7:52 pm 19:52 Mostly Cloudy 87 30.6 71 21.7 59 59 SSE 24 39 29.61 1003 10 16 0.00 0.00
8:52 pm 20:52 Mostly Cloudy 85 29.4 70 21.1 61 61 S 20 31 29.63 1003 10 16 0.00 0.00
9:52 pm 21:52 Mostly Cloudy 84 28.9 69 20.6 61 61 SSE 20 31 29.64 1004 10 16 0.00 0.00
10:52 pm 22:52 Mostly Cloudy 83 28.3 70 21.1 65 65 S 22 35 29.64 1004 10 16 0.00 0.00
11:52 pm 23:52 Clear 81 27.2 69 20.6 67 67 S 20 31 29.64 1004 10 16 0.00 0.00

Powered by Vaisala Xweather